Time,TemperatureF,DewpointF,PressureIn,WindDirection,WindDirectionDegrees,WindSpeedMPH,WindSpeedGustMPH,Humidity,HourlyPrecipIn,Conditions,Clouds,dailyrainin,SoftwareType,DateUTC
2013-07-20 00:11:00,75.2,73.7,29.78,South,180,0.0,-999.0,95,-99.99,,,0.00,Acu-Link.com,2013-07-20 05:11:00,
2013-07-20 00:26:00,74.5,74.2,29.79,NNE,22,0.0,-999.0,99,-99.99,,,0.00,Acu-Link.com,2013-07-20 05:26:00,
2013-07-20 00:42:00,73.4,72.8,29.79,NNE,22,0.0,-999.0,98,-99.99,,,0.00,Acu-Link.com,2013-07-20 05:42:00,
2013-07-20 00:57:00,72.9,72.3,29.80,NNE,22,0.0,-999.0,98,-99.99,,,0.00,Acu-Link.com,2013-07-20 05:57:00,
2013-07-20 01:12:00,72.3,71.1,29.80,NNE,22,0.0,-999.0,96,-99.99,,,0.00,Acu-Link.com,2013-07-20 06:12:00,
2013-07-20 01:27:00,72.0,70.8,29.79,NNE,22,0.0,-999.0,96,-99.99,,,0.00,Acu-Link.com,2013-07-20 06:27:00,
2013-07-20 01:42:00,71.6,70.4,29.79,NNE,22,0.0,-999.0,96,-99.99,,,0.00,Acu-Link.com,2013-07-20 06:42:00,
2013-07-20 01:57:00,71.4,69.3,29.79,NNE,22,0.0,-999.0,93,-99.99,,,0.00,Acu-Link.com,2013-07-20 06:57:00,
2013-07-20 02:12:00,71.4,67.3,29.80,NNE,22,0.0,-999.0,87,-99.99,,,0.00,Acu-Link.com,2013-07-20 07:12:00,
2013-07-20 02:27:00,71.2,67.8,29.79,NNE,22,0.0,-999.0,89,-99.99,,,0.00,Acu-Link.com,2013-07-20 07:27:00,
2013-07-20 02:42:00,70.9,66.8,29.80,NNE,22,0.0,-999.0,87,-99.99,,,0.00,Acu-Link.com,2013-07-20 07:42:00,
2013-07-20 02:57:00,70.9,65.5,29.80,NNE,22,0.0,-999.0,83,-99.99,,,0.00,Acu-Link.com,2013-07-20 07:57:00,
2013-07-20 03:13:00,70.7,65.3,29.79,NNE,22,0.0,-999.0,83,-99.99,,,0.00,Acu-Link.com,2013-07-20 08:13:00,
2013-07-20 03:29:00,70.5,65.4,29.79,NNE,22,0.0,-999.0,84,-99.99,,,0.00,Acu-Link.com,2013-07-20 08:29:00,
2013-07-20 03:44:00,70.9,64.1,29.78,NNE,22,0.0,-999.0,79,-99.99,,,0.00,Acu-Link.com,2013-07-20 08:44:00,
2013-07-20 03:59:00,70.9,62.9,29.79,NNE,22,0.0,-999.0,76,-99.99,,,0.00,Acu-Link.com,2013-07-20 08:59:00,
2013-07-20 04:14:00,70.3,63.5,29.79,NNE,22,0.0,-999.0,79,-99.99,,,0.00,Acu-Link.com,2013-07-20 09:14:00,
2013-07-20 04:29:00,70.2,62.6,29.80,NNE,22,0.0,-999.0,77,-99.99,,,0.00,Acu-Link.com,2013-07-20 09:29:00,
2013-07-20 04:44:00,70.0,61.3,29.79,NNE,22,0.0,-999.0,74,-99.99,,,0.00,Acu-Link.com,2013-07-20 09:44:00,
2013-07-20 04:59:00,70.0,61.3,29.80,NNE,22,0.0,-999.0,74,-99.99,,,0.00,Acu-Link.com,2013-07-20 09:59:00,
2013-07-20 05:14:00,69.6,60.6,29.80,NNE,22,0.0,-999.0,73,-99.99,,,0.00,Acu-Link.com,2013-07-20 10:14:00,
2013-07-20 05:29:00,69.6,60.2,29.79,NNE,22,0.0,-999.0,72,-99.99,,,0.00,Acu-Link.com,2013-07-20 10:29:00,
2013-07-20 05:45:00,69.6,59.8,29.79,NNE,22,0.0,-999.0,71,-99.99,,,0.00,Acu-Link.com,2013-07-20 10:45:00,
2013-07-20 06:00:00,69.8,60.0,29.80,NNE,22,0.0,-999.0,71,-99.99,,,0.00,Acu-Link.com,2013-07-20 11:00:00,
2013-07-20 06:15:00,70.3,60.0,29.80,NNE,22,0.0,-999.0,70,-99.99,,,0.00,Acu-Link.com,2013-07-20 11:15:00,
2013-07-20 06:30:00,71.1,60.8,29.80,NNE,22,0.0,-999.0,70,-99.99,,,0.00,Acu-Link.com,2013-07-20 11:30:00,
2013-07-20 06:45:00,72.3,61.1,29.80,SSE,157,0.0,-999.0,68,-99.99,,,0.00,Acu-Link.com,2013-07-20 11:45:00,
2013-07-20 07:00:00,73.2,63.6,29.80,West,270,1.1,-999.0,72,-99.99,,,0.00,Acu-Link.com,2013-07-20 12:00:00,
2013-07-20 07:15:00,75.4,72.6,29.80,SE,135,0.0,-999.0,91,-99.99,,,0.00,Acu-Link.com,2013-07-20 12:15:00,
2013-07-20 07:30:00,77.7,75.2,29.80,SSE,157,1.7,-999.0,92,-99.99,,,0.00,Acu-Link.com,2013-07-20 12:30:00,
2013-07-20 07:45:00,79.9,75.3,29.79,SW,225,4.2,-999.0,86,-99.99,,,0.00,Acu-Link.com,2013-07-20 12:45:00,
2013-07-20 08:01:00,80.6,75.7,29.79,ESE,112,2.7,-999.0,85,-99.99,,,0.00,Acu-Link.com,2013-07-20 13:01:00,
2013-07-20 08:16:00,82.2,76.1,29.79,West,270,2.7,-999.0,82,-99.99,,,0.00,Acu-Link.com,2013-07-20 13:16:00,
2013-07-20 08:31:00,84.6,77.0,29.79,SSE,157,0.0,-999.0,78,-99.99,,,0.00,Acu-Link.com,2013-07-20 13:31:00,
2013-07-20 08:46:00,86.7,76.6,29.80,ESE,112,3.2,-999.0,72,-99.99,,,0.00,Acu-Link.com,2013-07-20 13:46:00,
2013-07-20 09:01:00,89.2,77.2,29.80,WSW,247,3.2,-999.0,68,-99.99,,,0.00,Acu-Link.com,2013-07-20 14:01:00,
2013-07-20 09:16:00,85.1,75.9,29.79,ESE,112,3.2,-999.0,74,-99.99,,,0.00,Acu-Link.com,2013-07-20 14:16:00,
2013-07-20 09:31:00,85.5,75.8,29.79,South,180,3.7,-999.0,73,-99.99,,,0.00,Acu-Link.com,2013-07-20 14:31:00,
2013-07-20 09:46:00,86.5,76.0,29.79,SW,225,2.2,-999.0,71,-99.99,,,0.00,Acu-Link.com,2013-07-20 14:46:00,
2013-07-20 10:01:00,88.2,76.7,29.80,ESE,112,2.7,-999.0,69,-99.99,,,0.00,Acu-Link.com,2013-07-20 15:01:00,
2013-07-20 10:17:00,88.5,76.6,29.79,SE,135,3.2,-999.0,68,-99.99,,,0.00,Acu-Link.com,2013-07-20 15:17:00,
2013-07-20 10:32:00,88.3,76.4,29.79,SE,135,3.7,-999.0,68,-99.99,,,0.00,Acu-Link.com,2013-07-20 15:32:00,
2013-07-20 10:47:00,90.3,77.8,29.79,SE,135,5.3,-999.0,67,-99.99,,,0.00,Acu-Link.com,2013-07-20 15:47:00,
2013-07-20 11:02:00,90.3,76.9,29.79,SE,135,2.7,-999.0,65,-99.99,,,0.00,Acu-Link.com,2013-07-20 16:02:00,
2013-07-20 11:17:00,90.3,76.0,29.78,ESE,112,3.7,-999.0,63,-99.99,,,0.00,Acu-Link.com,2013-07-20 16:17:00,
2013-07-20 11:32:00,91.0,75.1,29.78,South,180,3.2,-999.0,60,-99.99,,,0.00,Acu-Link.com,2013-07-20 16:32:00,
2013-07-20 11:47:00,92.5,76.0,29.78,South,180,4.7,-999.0,59,-99.99,,,0.00,Acu-Link.com,2013-07-20 16:47:00,
2013-07-20 12:02:00,93.0,76.0,29.78,South,180,3.2,-999.0,58,-99.99,,,0.00,Acu-Link.com,2013-07-20 17:02:00,
2013-07-20 12:17:00,91.2,74.8,29.77,ESE,112,3.7,-999.0,59,-99.99,,,0.00,Acu-Link.com,2013-07-20 17:17:00,
2013-07-20 12:33:00,92.8,76.3,29.78,SSE,157,2.2,-999.0,59,-99.99,,,0.00,Acu-Link.com,2013-07-20 17:33:00,
2013-07-20 12:48:00,92.7,76.2,29.76,ESE,112,4.2,-999.0,59,-99.99,,,0.00,Acu-Link.com,2013-07-20 17:48:00,
2013-07-20 13:03:00,91.9,75.0,29.76,ESE,112,4.7,-999.0,58,-99.99,,,0.00,Acu-Link.com,2013-07-20 18:03:00,
2013-07-20 13:18:00,92.3,74.8,29.76,SSE,157,4.7,-999.0,57,-99.99,,,0.00,Acu-Link.com,2013-07-20 18:18:00,
2013-07-20 13:33:00,93.0,75.5,29.76,SSE,157,4.2,-999.0,57,-99.99,,,0.00,Acu-Link.com,2013-07-20 18:33:00,
2013-07-20 13:48:00,92.7,74.1,29.74,SSE,157,2.7,-999.0,55,-99.99,,,0.00,Acu-Link.com,2013-07-20 18:48:00,
2013-07-20 14:03:00,94.1,74.9,29.74,SSE,157,4.2,-999.0,54,-99.99,,,0.00,Acu-Link.com,2013-07-20 19:03:00,
2013-07-20 14:33:00,93.0,74.4,29.73,SW,225,2.2,-999.0,55,-99.99,,,0.00,Acu-Link.com,2013-07-20 19:33:00,
2013-07-20 14:49:00,94.1,74.9,29.73,West,270,1.7,-999.0,54,-99.99,,,0.00,Acu-Link.com,2013-07-20 19:49:00,
2013-07-20 15:04:00,93.9,74.1,29.72,SSW,202,3.2,-999.0,53,-99.99,,,0.00,Acu-Link.com,2013-07-20 20:04:00,
2013-07-20 15:19:00,92.5,74.5,29.72,South,180,1.7,-999.0,56,-99.99,,,0.00,Acu-Link.com,2013-07-20 20:19:00,
2013-07-20 15:34:00,93.6,76.0,29.70,South,180,2.7,-999.0,57,-99.99,,,0.00,Acu-Link.com,2013-07-20 20:34:00,
2013-07-20 16:04:00,91.0,74.1,29.68,SE,135,2.2,-999.0,58,-99.99,,,0.00,Acu-Link.com,2013-07-20 21:04:00,
2013-07-20 16:19:00,90.7,74.4,29.69,ESE,112,3.2,-999.0,59,-99.99,,,0.00,Acu-Link.com,2013-07-20 21:19:00,
2013-07-20 17:05:00,91.6,72.6,29.66,ESE,112,5.8,-999.0,54,-99.99,,,0.00,Acu-Link.com,2013-07-20 22:05:00,
2013-07-20 17:35:00,92.7,74.1,29.67,SE,135,5.3,-999.0,55,-99.99,,,0.00,Acu-Link.com,2013-07-20 22:35:00,
2013-07-20 17:50:00,93.2,75.1,29.67,SSE,157,4.7,-999.0,56,-99.99,,,0.00,Acu-Link.com,2013-07-20 22:50:00,
2013-07-20 18:05:00,93.4,74.2,29.69,SE,135,6.3,-999.0,54,-99.99,,,0.00,Acu-Link.com,2013-07-20 23:05:00,
2013-07-20 18:20:00,93.2,74.6,29.69,West,270,2.2,-999.0,55,-99.99,,,0.00,Acu-Link.com,2013-07-20 23:20:00,
2013-07-20 18:36:00,93.4,74.2,29.69,SE,135,2.7,-999.0,54,-99.99,,,0.00,Acu-Link.com,2013-07-20 23:36:00,
2013-07-20 19:06:00,90.9,74.6,29.71,WNW,292,0.0,-999.0,59,-99.99,,,0.00,Acu-Link.com,2013-07-21 00:06:00,
2013-07-20 19:21:00,88.9,74.6,29.72,NE,45,1.7,-999.0,63,-99.99,,,0.00,Acu-Link.com,2013-07-21 00:21:00,
2013-07-20 19:36:00,88.3,75.0,29.71,ESE,112,2.7,-999.0,65,-99.99,,,0.00,Acu-Link.com,2013-07-21 00:36:00,
2013-07-20 20:06:00,86.2,74.8,29.72,SSE,157,1.7,-999.0,69,-99.99,,,0.00,Acu-Link.com,2013-07-21 01:06:00,
2013-07-20 20:51:00,83.5,75.1,29.73,ESE,112,0.0,-999.0,76,-99.99,,,0.00,Acu-Link.com,2013-07-21 01:51:00,
2013-07-20 21:22:00,82.4,76.0,29.74,South,180,0.0,-999.0,81,-99.99,,,0.00,Acu-Link.com,2013-07-21 02:22:00,
2013-07-20 21:37:00,82.2,76.1,29.75,South,180,0.0,-999.0,82,-99.99,,,0.00,Acu-Link.com,2013-07-21 02:37:00,
2013-07-20 21:52:00,82.0,75.9,29.75,SE,135,0.0,-999.0,82,-99.99,,,0.00,Acu-Link.com,2013-07-21 02:52:00,
2013-07-20 22:22:00,81.5,75.8,29.76,ESE,112,0.0,-999.0,83,-99.99,,,0.00,Acu-Link.com,2013-07-21 03:22:00,
2013-07-20 22:37:00,81.3,75.6,29.76,SSE,157,0.0,-999.0,83,-99.99,,,0.00,Acu-Link.com,2013-07-21 03:37:00,
2013-07-20 22:52:00,81.0,75.7,29.76,SE,135,0.0,-999.0,84,-99.99,,,0.00,Acu-Link.com,2013-07-21 03:52:00,
2013-07-20 23:07:00,80.6,75.7,29.76,ESE,112,2.7,-999.0,85,-99.99,,,0.00,Acu-Link.com,2013-07-21 04:07:00,
2013-07-20 23:23:00,80.8,76.2,29.77,SE,135,1.7,-999.0,86,-99.99,,,0.00,Acu-Link.com,2013-07-21 04:23:00,
2013-07-20 23:38:00,80.4,75.8,29.76,SE,135,1.7,-999.0,86,-99.99,,,0.00,Acu-Link.com,2013-07-21 04:38:00,
2013-07-20 23:53:00,80.2,76.0,29.77,SSE,157,2.7,-999.0,87,-99.99,,,0.00,Acu-Link.com,2013-07-21 04:53:00,